STARLINK-3932 (52576 NORAD) Tracking and Keplerian Element Data

This shows tracking and keplerian element data for the satellite.

Feedback or suggestion? Click here.




ElementValue
Catalog52576
NameSTARLINK-3932
Epoch Orbit130
Epoch Day167.08334491
Epoch Year2022
RAAN128.9874
Inclination53.2162
Eccentricity0.0002633
Argument of Perigee16.4034
Mean Anonmoly54.6501
Mean Motion15.73266938
Decay Rate-6.656E-05
L11 52576U 22051AS 22167.08334491 -.00006656 00000+0 -42889-4 0 9994
L22 52576 53.2162 128.9874 0002633 16.4034 54.6501 15.73266938 1302

Live tracking and technical data element details for STARLINK-3932 (NORAD 52576). STARLINK-3932 can be tracked NOW for your location showing map with azimuth and elevation plus other details from your city location.

Track the satellite on the map from your city or location and see movement details for azimuth, elevation, latitude, longitude, range, height, and movement on the map or in text.







IsCatalogInMostPopularTable: catalog: 52576, numindb: 3
Update: records affected: 1



GetName: 52576 STARLINK-3932

Hit Count: updated at: Sat, 25 Jun 2022 05:08:07 GMT